TimeAKDT,TemperatureF,Dew PointF,Humidity,Sea Level PressureIn,VisibilityMPH,Wind Direction,Wind SpeedMPH,Gust SpeedMPH,PrecipitationIn,Events,Conditions,WindDirDegrees,DateUTC
12:16 AM,42.8,35.6,76,29.70,10.0,Calm,Calm,-,N/A,,Clear,0,2013-09-08 08:16:00
12:36 AM,42.8,35.6,76,29.70,10.0,NNE,3.5,-,N/A,,Clear,20,2013-09-08 08:36:00
12:56 AM,41.0,33.8,76,29.70,10.0,NNE,3.5,-,N/A,,Clear,20,2013-09-08 08:56:00
1:16 AM,41.0,33.8,76,29.70,10.0,Calm,Calm,-,N/A,,Clear,0,2013-09-08 09:16:00
1:36 AM,39.2,33.8,81,29.70,10.0,North,3.5,-,N/A,,Clear,360,2013-09-08 09:36:00
1:56 AM,41.0,33.8,76,29.69,10.0,North,3.5,-,N/A,,Clear,360,2013-09-08 09:56:00
2:16 AM,41.0,33.8,76,29.69,10.0,North,3.5,-,N/A,,Clear,10,2013-09-08 10:16:00
2:36 AM,39.2,33.8,81,29.69,10.0,North,3.5,-,N/A,,Clear,360,2013-09-08 10:36:00
2:56 AM,39.2,32.0,75,29.69,10.0,North,3.5,-,N/A,,Clear,10,2013-09-08 10:56:00
3:16 AM,39.2,32.0,75,29.69,10.0,North,4.6,-,N/A,,Clear,350,2013-09-08 11:16:00
3:36 AM,37.4,32.0,81,29.69,10.0,Calm,Calm,-,N/A,,Clear,0,2013-09-08 11:36:00
3:56 AM,37.4,33.8,87,29.69,10.0,Calm,Calm,-,N/A,,Clear,0,2013-09-08 11:56:00
4:16 AM,37.4,32.0,81,29.68,10.0,Calm,Calm,-,N/A,,Clear,0,2013-09-08 12:16:00
4:36 AM,35.6,30.2,81,29.68,10.0,North,3.5,-,N/A,,Clear,10,2013-09-08 12:36:00
4:56 AM,37.4,30.2,75,29.68,10.0,North,4.6,-,N/A,,Clear,10,2013-09-08 12:56:00
5:16 AM,35.6,30.2,81,29.68,10.0,North,4.6,-,N/A,,Clear,360,2013-09-08 13:16:00
5:36 AM,35.6,30.2,81,29.68,10.0,North,4.6,-,N/A,,Clear,360,2013-09-08 13:36:00
5:56 AM,35.6,30.2,81,29.68,10.0,NW,4.6,-,N/A,,Clear,320,2013-09-08 13:56:00
6:16 AM,35.6,30.2,81,29.67,10.0,WNW,3.5,-,N/A,,Clear,300,2013-09-08 14:16:00
6:36 AM,35.6,30.2,81,29.68,10.0,Calm,Calm,-,N/A,,Clear,0,2013-09-08 14:36:00
6:56 AM,35.6,30.2,81,29.68,10.0,Calm,Calm,-,N/A,,Clear,0,2013-09-08 14:56:00
7:16 AM,33.8,28.4,81,29.68,10.0,Calm,Calm,-,N/A,,Clear,0,2013-09-08 15:16:00
7:36 AM,30.2,26.6,86,29.67,10.0,Calm,Calm,-,N/A,,Clear,0,2013-09-08 15:36:00
7:56 AM,32.0,28.4,87,29.67,10.0,NW,3.5,-,N/A,,Clear,310,2013-09-08 15:56:00
8:16 AM,32.0,28.4,87,29.68,10.0,Calm,Calm,-,N/A,,Clear,0,2013-09-08 16:16:00
8:36 AM,32.0,28.4,87,29.68,10.0,Calm,Calm,-,N/A,,Clear,0,2013-09-08 16:36:00
8:56 AM,33.8,30.2,87,29.68,10.0,Calm,Calm,-,N/A,,Clear,0,2013-09-08 16:56:00
9:16 AM,35.6,30.2,81,29.69,10.0,West,3.5,-,N/A,,Clear,270,2013-09-08 17:16:00
9:36 AM,37.4,32.0,81,29.69,10.0,WNW,3.5,-,N/A,,Clear,290,2013-09-08 17:36:00
9:56 AM,37.4,32.0,81,29.69,10.0,West,3.5,-,N/A,,Clear,270,2013-09-08 17:56:00
10:16 AM,39.2,33.8,81,29.69,10.0,West,3.5,-,N/A,,Clear,270,2013-09-08 18:16:00
10:36 AM,39.2,33.8,81,29.69,10.0,West,4.6,-,N/A,,Clear,280,2013-09-08 18:36:00
10:56 AM,42.8,33.8,70,29.69,10.0,Calm,Calm,-,N/A,,Clear,0,2013-09-08 18:56:00
11:16 AM,42.8,33.8,70,29.69,10.0,Calm,Calm,-,N/A,,Clear,0,2013-09-08 19:16:00
11:36 AM,44.6,33.8,66,29.69,10.0,Calm,Calm,-,N/A,,Clear,0,2013-09-08 19:36:00
11:56 AM,44.6,35.6,71,29.69,10.0,Calm,Calm,-,N/A,,Clear,0,2013-09-08 19:56:00
12:16 PM,46.4,35.6,66,29.69,10.0,Calm,Calm,-,N/A,,Clear,0,2013-09-08 20:16:00
12:36 PM,48.2,35.6,62,29.69,10.0,Calm,Calm,-,N/A,,Clear,0,2013-09-08 20:36:00
12:56 PM,48.2,35.6,62,29.68,10.0,SSW,3.5,-,N/A,,Clear,200,2013-09-08 20:56:00
1:16 PM,48.2,35.6,62,29.68,10.0,SW,4.6,-,N/A,,Clear,230,2013-09-08 21:16:00
1:36 PM,50.0,35.6,58,29.68,10.0,Calm,Calm,-,N/A,,Clear,0,2013-09-08 21:36:00
1:56 PM,51.8,37.4,58,29.69,10.0,Calm,Calm,-,N/A,,Clear,0,2013-09-08 21:56:00
2:16 PM,51.8,37.4,58,29.69,10.0,WSW,5.8,-,N/A,,Clear,240,2013-09-08 22:16:00
2:36 PM,51.8,37.4,58,29.69,10.0,West,4.6,-,N/A,,Clear,260,2013-09-08 22:36:00
2:56 PM,53.6,37.4,54,29.69,10.0,Calm,Calm,-,N/A,,Clear,0,2013-09-08 22:56:00
3:16 PM,53.6,37.4,54,29.69,10.0,West,3.5,-,N/A,,Clear,260,2013-09-08 23:16:00
3:36 PM,55.4,37.4,51,29.69,10.0,NW,4.6,-,N/A,,Clear,310,2013-09-08 23:36:00
3:56 PM,55.4,37.4,51,29.68,10.0,WSW,4.6,-,N/A,,Clear,240,2013-09-08 23:56:00
4:16 PM,55.4,37.4,51,29.69,10.0,West,4.6,-,N/A,,Clear,270,2013-09-09 00:16:00
4:36 PM,55.4,37.4,51,29.68,10.0,West,5.8,-,N/A,,Clear,260,2013-09-09 00:36:00
4:56 PM,57.2,37.4,48,29.69,10.0,WNW,4.6,-,N/A,,Clear,290,2013-09-09 00:56:00
5:36 PM,57.2,35.6,44,29.69,10.0,SW,8.1,-,N/A,,Clear,220,2013-09-09 01:36:00
5:56 PM,57.2,35.6,44,29.69,10.0,West,5.8,-,N/A,,Clear,280,2013-09-09 01:56:00
6:16 PM,57.2,35.6,44,29.69,10.0,Calm,Calm,-,N/A,,Clear,0,2013-09-09 02:16:00
6:36 PM,57.2,35.6,44,29.69,10.0,West,4.6,-,N/A,,Clear,260,2013-09-09 02:36:00
6:56 PM,57.2,37.4,48,29.69,10.0,South,10.4,-,N/A,,Clear,190,2013-09-09 02:56:00
7:16 PM,51.8,37.4,58,29.70,10.0,SSW,5.8,-,N/A,,Clear,210,2013-09-09 03:16:00
7:36 PM,50.0,39.2,66,29.70,10.0,SSW,3.5,-,N/A,,Partly Cloudy,210,2013-09-09 03:36:00
7:56 PM,50.0,39.2,66,29.70,10.0,SW,3.5,-,N/A,,Mostly Cloudy,230,2013-09-09 03:56:00
8:16 PM,50.0,39.2,66,29.70,10.0,Calm,Calm,-,N/A,,Overcast,0,2013-09-09 04:16:00
8:36 PM,50.0,39.2,66,29.70,10.0,SSW,3.5,-,N/A,,Overcast,200,2013-09-09 04:36:00
8:56 PM,50.0,39.2,66,29.71,10.0,SSW,4.6,-,N/A,,Overcast,210,2013-09-09 04:56:00
9:16 PM,50.0,39.2,66,29.71,10.0,Calm,Calm,-,N/A,,Overcast,0,2013-09-09 05:16:00
9:36 PM,48.2,39.2,71,29.72,10.0,Calm,Calm,-,N/A,,Overcast,0,2013-09-09 05:36:00
9:56 PM,48.2,39.2,71,29.72,10.0,Calm,Calm,-,N/A,,Overcast,0,2013-09-09 05:56:00
10:16 PM,48.2,41.0,76,29.72,10.0,Calm,Calm,-,N/A,,Overcast,0,2013-09-09 06:16:00
10:36 PM,46.4,39.2,76,29.72,10.0,Calm,Calm,-,N/A,,Overcast,0,2013-09-09 06:36:00
10:56 PM,46.4,41.0,81,29.73,10.0,Calm,Calm,-,N/A,,Overcast,0,2013-09-09 06:56:00
11:16 PM,46.4,41.0,81,29.72,10.0,Calm,Calm,-,N/A,,Overcast,0,2013-09-09 07:16:00
11:36 PM,46.4,41.0,81,29.73,10.0,Calm,Calm,-,N/A,,Overcast,0,2013-09-09 07:36:00
11:56 PM,44.6,39.2,81,29.73,10.0,Calm,Calm,-,N/A,,Overcast,0,2013-09-09 07:56:00